FDX336 KMEM-KOMA

Flight info

Callsign FDX336
Flight time 1h 21m
Altitude 28000
Route JTEEE5 ODATE MAP STJ MARWI4
Aircraft A306/H-SDE3FGHIRWY/LB1

Departure

Time 2026-05-06 22:24
Airport Memphis International Airport (KMEM)

Arrival

Time 2026-05-06 23:45
Airport Eppley Airfield (KOMA)
Time Latitude Longitude Altitude Speed Heading
2026-05-06 21:37 35.06271 -89.97702 333 ft 0 kts 90°
2026-05-06 22:07 35.06271 -89.97709 336 ft 4 kts 90°
2026-05-06 22:07 35.06271 -89.97742 335 ft 4 kts 90°
2026-05-06 22:08 35.06272 -89.97768 333 ft 4 kts 104°
2026-05-06 22:08 35.06283 -89.97788 336 ft 4 kts 175°
2026-05-06 22:08 35.06308 -89.97789 333 ft 2 kts 179°
2026-05-06 22:08 35.06310 -89.97789 336 ft 0 kts 179°
2026-05-06 22:13 35.06296 -89.97789 332 ft 4 kts 179°
2026-05-06 22:13 35.06252 -89.97788 334 ft 7 kts 179°
2026-05-06 22:14 35.06207 -89.97788 335 ft 8 kts 179°
2026-05-06 22:14 35.06136 -89.97787 334 ft 13 kts 179°
2026-05-06 22:14 35.06035 -89.97797 334 ft 14 kts 206°
2026-05-06 22:14 35.06009 -89.97891 333 ft 11 kts 270°
2026-05-06 22:15 35.06011 -89.97981 332 ft 10 kts 271°
2026-05-06 22:15 35.06014 -89.98084 336 ft 14 kts 272°
2026-05-06 22:15 35.06018 -89.98226 334 ft 19 kts 272°
2026-05-06 22:15 35.06022 -89.98385 333 ft 18 kts 272°
2026-05-06 22:16 35.05991 -89.98507 331 ft 15 kts 203°
2026-05-06 22:16 35.05895 -89.98507 333 ft 13 kts 176°
2026-05-06 22:16 35.05799 -89.98506 332 ft 15 kts 181°
2026-05-06 22:16 35.05689 -89.98508 334 ft 17 kts 180°
2026-05-06 22:17 35.05560 -89.98509 334 ft 20 kts 180°
2026-05-06 22:17 35.05411 -89.98510 334 ft 23 kts 180°
2026-05-06 22:17 35.05241 -89.98511 334 ft 26 kts 180°
2026-05-06 22:17 35.05068 -89.98514 334 ft 24 kts 181°
2026-05-06 22:18 35.04910 -89.98513 334 ft 22 kts 179°
2026-05-06 22:18 35.04765 -89.98510 334 ft 20 kts 179°
2026-05-06 22:18 35.04632 -89.98507 334 ft 18 kts 179°
2026-05-06 22:18 35.04512 -89.98506 334 ft 17 kts 180°
2026-05-06 22:19 35.04401 -89.98505 334 ft 15 kts 180°
2026-05-06 22:19 35.04300 -89.98502 334 ft 13 kts 178°
2026-05-06 22:19 35.04211 -89.98499 334 ft 14 kts 179°
2026-05-06 22:19 35.04086 -89.98497 334 ft 22 kts 178°
2026-05-06 22:20 35.03924 -89.98491 334 ft 23 kts 178°
2026-05-06 22:20 35.03769 -89.98484 334 ft 21 kts 177°
2026-05-06 22:20 35.03626 -89.98476 334 ft 19 kts 181°
2026-05-06 22:20 35.03483 -89.98478 334 ft 24 kts 179°
2026-05-06 22:21 35.03289 -89.98475 333 ft 30 kts 179°
2026-05-06 22:21 35.03087 -89.98469 334 ft 28 kts 179°
2026-05-06 22:21 35.02900 -89.98466 332 ft 26 kts 179°
2026-05-06 22:21 35.02728 -89.98461 334 ft 24 kts 179°
2026-05-06 22:22 35.02568 -89.98459 332 ft 22 kts 178°
2026-05-06 22:22 35.02449 -89.98459 334 ft 12 kts 187°
2026-05-06 22:22 35.02405 -89.98518 336 ft 9 kts 263°
2026-05-06 22:22 35.02404 -89.98594 336 ft 9 kts 270°
2026-05-06 22:23 35.02404 -89.98662 336 ft 7 kts 271°
2026-05-06 22:23 35.02430 -89.98691 335 ft 4 kts 346°
2026-05-06 22:23 35.02446 -89.98691 332 ft 7 kts 359°
2026-05-06 22:23 35.02652 -89.98694 331 ft 63 kts 359°
2026-05-06 22:24 35.03322 -89.98709 337 ft 128 kts 359°
2026-05-06 22:24 35.04406 -89.98738 413 ft 184 kts
2026-05-06 22:24 35.05758 -89.98835 1230 ft 202 kts 357°
2026-05-06 22:24 35.07231 -89.98977 1885 ft 227 kts 355°
2026-05-06 22:25 35.08894 -89.99160 2245 ft 248 kts 357°
2026-05-06 22:25 35.10636 -89.99299 3092 ft 253 kts 357°
2026-05-06 22:25 35.12450 -89.99355 3840 ft 260 kts 357°
2026-05-06 22:25 35.14250 -89.99399 4459 ft 257 kts 354°
2026-05-06 22:26 35.15996 -89.99580 4799 ft 257 kts 347°
2026-05-06 22:26 35.17789 -89.99999 5397 ft 265 kts 344°
2026-05-06 22:26 35.19581 -90.00449 6469 ft 263 kts 343°
2026-05-06 22:26 35.21396 -90.00878 7324 ft 270 kts 344°
2026-05-06 22:27 35.23314 -90.01167 8094 ft 283 kts 350°
2026-05-06 22:27 35.25312 -90.01314 8979 ft 290 kts 350°
2026-05-06 22:27 35.27342 -90.01445 9881 ft 294 kts 350°
2026-05-06 22:27 35.29426 -90.01580 10509 ft 308 kts 349°
2026-05-06 22:28 35.31634 -90.01721 10877 ft 328 kts 349°
2026-05-06 22:28 35.33983 -90.01853 11255 ft 346 kts 350°
2026-05-06 22:28 35.36447 -90.01974 11544 ft 363 kts 350°
2026-05-06 22:28 35.39013 -90.02138 11856 ft 382 kts 349°
2026-05-06 22:29 35.41742 -90.02315 12208 ft 401 kts 349°
2026-05-06 22:29 35.44575 -90.02487 12670 ft 413 kts 349°
2026-05-06 22:29 35.47483 -90.02649 13324 ft 421 kts 349°
2026-05-06 22:29 35.50403 -90.02815 14073 ft 427 kts 348°
2026-05-06 22:30 35.53397 -90.03005 14720 ft 433 kts 349°
2026-05-06 22:30 35.56412 -90.03178 15409 ft 433 kts 348°
2026-05-06 22:30 35.59427 -90.03363 16119 ft 433 kts 347°
2026-05-06 22:30 35.62448 -90.03552 16798 ft 434 kts 347°
2026-05-06 22:31 35.65457 -90.03787 17447 ft 434 kts 346°
2026-05-06 22:31 35.68439 -90.04048 18055 ft 436 kts 345°
2026-05-06 22:31 35.71476 -90.04316 18597 ft 438 kts 345°
2026-05-06 22:31 35.74530 -90.04599 19030 ft 439 kts 344°
2026-05-06 22:32 35.77516 -90.05216 19535 ft 428 kts 334°
2026-05-06 22:32 35.80264 -90.06449 20001 ft 414 kts 323°
2026-05-06 22:32 35.82693 -90.08267 20426 ft 401 kts 313°
2026-05-06 22:32 35.84735 -90.10503 20869 ft 395 kts 306°
2026-05-06 22:33 35.86764 -90.12825 21292 ft 402 kts 308°
2026-05-06 22:33 35.88925 -90.15050 21709 ft 407 kts 310°
2026-05-06 22:33 35.91173 -90.17225 22125 ft 411 kts 311°
2026-05-06 22:33 35.93468 -90.19373 22515 ft 415 kts 312°
2026-05-06 22:34 35.95761 -90.21492 22905 ft 418 kts 312°
2026-05-06 22:34 35.98102 -90.23653 23298 ft 420 kts 312°
2026-05-06 22:34 36.00453 -90.25833 23667 ft 423 kts 312°
2026-05-06 22:34 36.02808 -90.28028 23977 ft 425 kts 312°
2026-05-06 22:35 36.05170 -90.30242 24290 ft 427 kts 312°
2026-05-06 22:35 36.07551 -90.32479 24598 ft 429 kts 312°
2026-05-06 22:35 36.09899 -90.34691 24887 ft 431 kts 311°
2026-05-06 22:35 36.12288 -90.36944 25184 ft 433 kts 311°
2026-05-06 22:36 36.14688 -90.39209 25437 ft 436 kts 311°
2026-05-06 22:36 36.17114 -90.41500 25647 ft 439 kts 311°
2026-05-06 22:36 36.19554 -90.43807 25935 ft 441 kts 311°
2026-05-06 22:36 36.21998 -90.46118 26220 ft 442 kts 311°
2026-05-06 22:37 36.24456 -90.48443 26513 ft 444 kts 311°
2026-05-06 22:37 36.26884 -90.50741 26844 ft 444 kts 310°
2026-05-06 22:37 36.29340 -90.53067 27153 ft 444 kts 310°
2026-05-06 22:37 36.31799 -90.55396 27545 ft 442 kts 310°
2026-05-06 22:38 36.34240 -90.57709 27922 ft 441 kts 309°
2026-05-06 22:38 36.36674 -90.60021 28045 ft 438 kts 309°
2026-05-06 22:38 36.39064 -90.62277 28053 ft 425 kts 309°
2026-05-06 22:38 36.41397 -90.64478 28057 ft 418 kts 309°
2026-05-06 22:39 36.45966 -90.68839 28059 ft 415 kts 308°
2026-05-06 22:39 36.50553 -90.73242 28099 ft 415 kts 308°
2026-05-06 22:40 36.55072 -90.77564 28062 ft 409 kts 308°
2026-05-06 22:40 36.59575 -90.81873 28051 ft 407 kts 308°
2026-05-06 22:41 36.66281 -90.88313 28055 ft 407 kts 308°
2026-05-06 22:42 36.70768 -90.92632 28058 ft 407 kts 308°
2026-05-06 22:42 36.75253 -90.96943 28098 ft 406 kts 308°
2026-05-06 22:43 36.79699 -91.01212 28055 ft 405 kts 308°
2026-05-06 22:43 36.84155 -91.05520 28056 ft 404 kts 308°
2026-05-06 22:44 36.88609 -91.09841 28057 ft 404 kts 308°
2026-05-06 22:44 36.93060 -91.14153 28056 ft 404 kts 308°
2026-05-06 22:45 36.97470 -91.18424 28055 ft 404 kts 307°
2026-05-06 22:45 37.01917 -91.22740 28062 ft 403 kts 307°
2026-05-06 22:46 37.06347 -91.27046 28060 ft 403 kts 307°
2026-05-06 22:46 37.10747 -91.31331 28063 ft 403 kts 307°
2026-05-06 22:47 37.14430 -91.34923 28056 ft 402 kts 307°
2026-05-06 22:47 37.18879 -91.39232 28068 ft 404 kts 308°
2026-05-06 22:48 37.23308 -91.43560 28105 ft 402 kts 307°
2026-05-06 22:48 37.27708 -91.47894 28067 ft 401 kts 307°
2026-05-06 22:49 37.32089 -91.52199 28062 ft 401 kts 307°
2026-05-06 22:49 37.36502 -91.56534 28071 ft 402 kts 307°
2026-05-06 22:50 37.40879 -91.60848 28085 ft 402 kts 306°
2026-05-06 22:50 37.45255 -91.65238 28066 ft 402 kts 306°
2026-05-06 22:51 37.49683 -91.69593 28077 ft 403 kts 307°
2026-05-06 22:51 37.54100 -91.73928 28080 ft 402 kts 306°
2026-05-06 22:52 37.58452 -91.78274 28075 ft 397 kts 304°
2026-05-06 22:52 37.62386 -91.83041 28078 ft 390 kts 300°
2026-05-06 22:53 37.66234 -91.87873 28062 ft 389 kts 300°
2026-05-06 22:53 37.70048 -91.92687 28103 ft 389 kts 300°
2026-05-06 22:54 37.73879 -91.97529 28051 ft 388 kts 300°
2026-05-06 22:54 37.77688 -92.02354 28047 ft 387 kts 300°
2026-05-06 22:55 37.81470 -92.07159 28043 ft 387 kts 300°
2026-05-06 22:55 37.85263 -92.11989 28043 ft 387 kts 300°
2026-05-06 22:56 37.89069 -92.16829 28047 ft 387 kts 300°
2026-05-06 22:56 37.92849 -92.21646 28050 ft 387 kts 300°
2026-05-06 22:57 37.96626 -92.26472 28060 ft 384 kts 299°
2026-05-06 22:57 38.00370 -92.31267 28092 ft 383 kts 299°
2026-05-06 22:58 38.04111 -92.36079 28084 ft 383 kts 299°
2026-05-06 22:58 38.07871 -92.40887 28086 ft 383 kts 299°
2026-05-06 22:59 38.11627 -92.45706 28097 ft 383 kts 299°
2026-05-06 22:59 38.15351 -92.50497 28091 ft 383 kts 299°
2026-05-06 23:00 38.19099 -92.55316 28090 ft 382 kts 299°
2026-05-06 23:00 38.22828 -92.60133 28090 ft 381 kts 299°
2026-05-06 23:01 38.26556 -92.64957 28091 ft 382 kts 299°
2026-05-06 23:01 38.30265 -92.69759 28089 ft 382 kts 299°
2026-05-06 23:02 38.33987 -92.74592 28088 ft 382 kts 299°
2026-05-06 23:02 38.37692 -92.79403 28090 ft 382 kts 299°
2026-05-06 23:03 38.41418 -92.84250 28093 ft 382 kts 299°
2026-05-06 23:03 38.45109 -92.89062 28090 ft 382 kts 299°
2026-05-06 23:04 38.48831 -92.93919 28104 ft 382 kts 298°
2026-05-06 23:04 38.52540 -92.98766 28097 ft 381 kts 298°
2026-05-06 23:05 38.56248 -93.03622 28101 ft 381 kts 298°
2026-05-06 23:05 38.59928 -93.08448 28107 ft 381 kts 298°
2026-05-06 23:06 38.63627 -93.13307 28111 ft 379 kts 299°
2026-05-06 23:06 38.67285 -93.18115 28103 ft 375 kts 298°
2026-05-06 23:07 38.70897 -93.22878 28119 ft 375 kts 298°
2026-05-06 23:07 38.74538 -93.27685 28119 ft 375 kts 298°
2026-05-06 23:08 38.78165 -93.32478 28118 ft 375 kts 298°
2026-05-06 23:08 38.81772 -93.37251 28114 ft 375 kts 298°
2026-05-06 23:09 38.85404 -93.42069 28133 ft 376 kts 299°
2026-05-06 23:09 38.89042 -93.46904 28116 ft 380 kts 300°
2026-05-06 23:10 38.92722 -93.51796 28117 ft 380 kts 300°
2026-05-06 23:10 38.96377 -93.56662 28122 ft 380 kts 300°
2026-05-06 23:11 39.00050 -93.61562 28120 ft 380 kts 300°
2026-05-06 23:11 39.03713 -93.66457 28124 ft 380 kts 300°
2026-05-06 23:12 39.07382 -93.71365 28153 ft 381 kts 300°
2026-05-06 23:12 39.11041 -93.76278 28131 ft 384 kts 300°
2026-05-06 23:13 39.14745 -93.81262 28139 ft 385 kts 301°
2026-05-06 23:13 39.18455 -93.86247 28123 ft 389 kts 301°
2026-05-06 23:14 39.22203 -93.91289 28132 ft 389 kts 301°
2026-05-06 23:14 39.25963 -93.96360 28123 ft 389 kts 301°
2026-05-06 23:15 39.29685 -94.01392 28125 ft 391 kts 303°
2026-05-06 23:15 39.33470 -94.06518 28117 ft 395 kts 303°
2026-05-06 23:16 39.37276 -94.11676 28114 ft 396 kts 303°
2026-05-06 23:16 39.41060 -94.16813 28129 ft 396 kts 303°
2026-05-06 23:17 39.44861 -94.21985 28128 ft 397 kts 304°
2026-05-06 23:17 39.48675 -94.27183 28132 ft 398 kts 304°
2026-05-06 23:18 39.52470 -94.32364 28135 ft 399 kts 304°
2026-05-06 23:18 39.56288 -94.37583 28136 ft 399 kts 304°
2026-05-06 23:19 39.60103 -94.42810 28139 ft 398 kts 304°
2026-05-06 23:19 39.63893 -94.48010 28138 ft 398 kts 304°
2026-05-06 23:20 39.67702 -94.53245 28134 ft 398 kts 304°
2026-05-06 23:20 39.71501 -94.58477 28135 ft 398 kts 304°
2026-05-06 23:21 39.75306 -94.63727 28124 ft 399 kts 304°
2026-05-06 23:21 39.79116 -94.68990 28112 ft 399 kts 304°
2026-05-06 23:22 39.82867 -94.74176 28109 ft 393 kts 304°
2026-05-06 23:22 39.86602 -94.79356 28111 ft 391 kts 304°
2026-05-06 23:23 39.90330 -94.84537 28110 ft 391 kts 304°
2026-05-06 23:23 39.94083 -94.89645 28116 ft 396 kts 308°
2026-05-06 23:23 39.96376 -94.91769 28106 ft 414 kts 321°
2026-05-06 23:24 39.99129 -94.93099 28066 ft 428 kts 335°
2026-05-06 23:24 40.02071 -94.93791 27617 ft 432 kts 340°
2026-05-06 23:24 40.05067 -94.94347 26840 ft 432 kts 341°
2026-05-06 23:24 40.08023 -94.94876 26050 ft 424 kts 341°
2026-05-06 23:25 40.10896 -94.95402 25440 ft 416 kts 342°
2026-05-06 23:25 40.13742 -94.95935 24891 ft 408 kts 342°
2026-05-06 23:25 40.16531 -94.96464 24368 ft 401 kts 341°
2026-05-06 23:25 40.19282 -94.96992 23786 ft 396 kts 341°
2026-05-06 23:26 40.21995 -94.97517 23172 ft 390 kts 341°
2026-05-06 23:26 40.24656 -94.98032 22642 ft 383 kts 342°
2026-05-06 23:26 40.27246 -94.98534 22098 ft 377 kts 342°
2026-05-06 23:26 40.29829 -94.99037 21551 ft 372 kts 342°
2026-05-06 23:27 40.32376 -94.99533 21048 ft 367 kts 342°
2026-05-06 23:27 40.34891 -95.00024 20530 ft 362 kts 342°
2026-05-06 23:27 40.37375 -95.00509 20018 ft 358 kts 343°
2026-05-06 23:27 40.39829 -95.00989 19457 ft 355 kts 343°
2026-05-06 23:28 40.42248 -95.01462 18961 ft 352 kts 343°
2026-05-06 23:28 40.44657 -95.01932 18450 ft 348 kts 343°
2026-05-06 23:28 40.47050 -95.02401 17861 ft 346 kts 344°
2026-05-06 23:28 40.49426 -95.02866 17326 ft 342 kts 345°
2026-05-06 23:29 40.51740 -95.03318 16842 ft 337 kts 345°
2026-05-06 23:29 40.54077 -95.03776 16351 ft 333 kts 345°
2026-05-06 23:29 40.56342 -95.04222 15851 ft 332 kts 346°
2026-05-06 23:29 40.58620 -95.04670 15350 ft 330 kts 346°
2026-05-06 23:30 40.60885 -95.05115 14866 ft 327 kts 346°
2026-05-06 23:30 40.63135 -95.05557 14375 ft 325 kts 347°
2026-05-06 23:30 40.65372 -95.05996 13843 ft 323 kts 347°
2026-05-06 23:30 40.67561 -95.06426 13307 ft 319 kts 347°
2026-05-06 23:31 40.69754 -95.06856 12833 ft 317 kts 347°
2026-05-06 23:31 40.71942 -95.07287 12346 ft 316 kts 347°
2026-05-06 23:31 40.74086 -95.07710 11862 ft 314 kts 348°
2026-05-06 23:31 40.76204 -95.08298 11479 ft 304 kts 339°
2026-05-06 23:32 40.78008 -95.09457 11373 ft 275 kts 323°
2026-05-06 23:32 40.79366 -95.11064 11279 ft 252 kts 310°
2026-05-06 23:32 40.80463 -95.12803 11213 ft 247 kts 307°
2026-05-06 23:32 40.81538 -95.14596 11106 ft 250 kts 307°
2026-05-06 23:33 40.82606 -95.16387 10904 ft 252 kts 307°
2026-05-06 23:33 40.83700 -95.18216 10479 ft 254 kts 307°
2026-05-06 23:33 40.84802 -95.20054 10107 ft 255 kts 307°
2026-05-06 23:33 40.85907 -95.21897 9705 ft 256 kts 307°
2026-05-06 23:34 40.87002 -95.23723 9320 ft 256 kts 307°
2026-05-06 23:34 40.88112 -95.25574 8944 ft 256 kts 307°
2026-05-06 23:34 40.89215 -95.27414 8584 ft 255 kts 307°
2026-05-06 23:34 40.89944 -95.28630 8344 ft 254 kts 307°
2026-05-06 23:35 40.91038 -95.30458 7988 ft 253 kts 307°
2026-05-06 23:35 40.92130 -95.32283 7620 ft 253 kts 307°
2026-05-06 23:35 40.93575 -95.34698 7127 ft 252 kts 307°
2026-05-06 23:35 40.94309 -95.35925 6874 ft 251 kts 307°
2026-05-06 23:36 40.95391 -95.37735 6545 ft 250 kts 307°
2026-05-06 23:36 40.96451 -95.39510 6186 ft 248 kts 307°
2026-05-06 23:36 40.97533 -95.41325 5833 ft 247 kts 307°
2026-05-06 23:36 40.98583 -95.43085 5493 ft 246 kts 307°
2026-05-06 23:37 40.99639 -95.44856 5145 ft 244 kts 307°
2026-05-06 23:37 41.00692 -95.46626 4746 ft 245 kts 307°
2026-05-06 23:37 41.01745 -95.48396 4392 ft 244 kts 307°
2026-05-06 23:37 41.02789 -95.50154 4055 ft 242 kts 308°
2026-05-06 23:38 41.03824 -95.51895 3720 ft 240 kts 308°
2026-05-06 23:38 41.04852 -95.53625 3404 ft 238 kts 308°
2026-05-06 23:38 41.05871 -95.55342 3093 ft 238 kts 308°
2026-05-06 23:38 41.06911 -95.57095 3010 ft 244 kts 308°
2026-05-06 23:39 41.07968 -95.58876 3009 ft 247 kts 308°
2026-05-06 23:39 41.09037 -95.60652 3014 ft 246 kts 308°
2026-05-06 23:39 41.10105 -95.62436 3007 ft 247 kts 307°
2026-05-06 23:39 41.11146 -95.64211 2990 ft 246 kts 307°
2026-05-06 23:40 41.12200 -95.66004 2984 ft 247 kts 308°
2026-05-06 23:40 41.13258 -95.67804 2992 ft 247 kts 308°
2026-05-06 23:40 41.14325 -95.69591 2981 ft 247 kts 308°
2026-05-06 23:40 41.15383 -95.71382 2987 ft 246 kts 307°
2026-05-06 23:41 41.16359 -95.73144 2973 ft 231 kts 306°
2026-05-06 23:41 41.17215 -95.74863 2972 ft 216 kts 303°
2026-05-06 23:41 41.17969 -95.76523 2959 ft 202 kts 301°
2026-05-06 23:41 41.18663 -95.78073 2963 ft 189 kts 304°
2026-05-06 23:42 41.19537 -95.79337 2968 ft 185 kts 319°
2026-05-06 23:42 41.20554 -95.80361 2978 ft 182 kts 323°
2026-05-06 23:42 41.21595 -95.81334 2955 ft 184 kts 325°
2026-05-06 23:42 41.22616 -95.82289 2738 ft 178 kts 323°
2026-05-06 23:43 41.23626 -95.83252 2423 ft 176 kts 324°
2026-05-06 23:43 41.24611 -95.84182 2173 ft 175 kts 323°
2026-05-06 23:43 41.25544 -95.85060 1953 ft 154 kts 324°
2026-05-06 23:43 41.26358 -95.85836 1724 ft 135 kts 324°
2026-05-06 23:44 41.27103 -95.86544 1536 ft 130 kts 323°
2026-05-06 23:44 41.27844 -95.87241 1359 ft 132 kts 324°
2026-05-06 23:44 41.28585 -95.87966 1196 ft 129 kts 327°
2026-05-06 23:44 41.29288 -95.88620 1021 ft 119 kts 324°
2026-05-06 23:45 41.29891 -95.89192 996 ft 93 kts 324°
2026-05-06 23:45 41.30317 -95.89595 995 ft 64 kts 326°
2026-05-06 23:45 41.30642 -95.89906 995 ft 52 kts 323°
2026-05-06 23:45 41.30914 -95.90163 997 ft 42 kts 324°
2026-05-06 23:46 41.31035 -95.90316 996 ft 16 kts 277°
2026-05-06 23:46 41.31005 -95.90401 993 ft 9 kts 235°
2026-05-06 23:46 41.30980 -95.90450 997 ft 3 kts 236°
2026-05-06 23:46 41.30964 -95.90493 996 ft 8 kts 259°
2026-05-06 23:47 41.30997 -95.90562 993 ft 9 kts 314°
2026-05-06 23:47 41.30994 -95.90626 993 ft 7 kts 238°
2026-05-06 23:47 41.30964 -95.90681 998 ft 7 kts 233°
2026-05-06 23:47 41.30934 -95.90736 993 ft 6 kts 234°
2026-05-06 23:48 41.30908 -95.90783 997 ft 6 kts 234°
2026-05-06 23:48 41.30891 -95.90814 997 ft 4 kts 234°
2026-05-06 23:48 41.30877 -95.90829 998 ft 1 kts 193°
2026-05-06 23:48 41.30872 -95.90825 998 ft 1 kts 161°
2026-05-06 23:49 41.30870 -95.90821 998 ft 1 kts 143°
2026-05-06 23:49 41.30855 -95.90807 996 ft 4 kts 144°
2026-05-06 23:49 41.30845 -95.90798 998 ft 2 kts 144°
2026-05-06 23:49 41.30840 -95.90793 997 ft 0 kts 144°